TimeEDT,TemperatureF,Dew PointF,Humidity,Sea Level PressureIn,VisibilityMPH,Wind Direction,Wind SpeedMPH,Gust SpeedMPH,PrecipitationIn,Events,Conditions,WindDirDegrees,DateUTC
12:10 AM,48.2,39.2,71,30.31,10.0,North,5.8,-,0.00,,Clear,360,2013-10-14 04:10:00
12:30 AM,46.4,39.2,76,30.31,10.0,North,5.8,-,0.00,,Clear,10,2013-10-14 04:30:00
12:50 AM,46.4,39.2,76,30.31,10.0,North,6.9,-,0.00,,Clear,10,2013-10-14 04:50:00
1:10 AM,46.4,39.2,76,30.31,10.0,North,5.8,-,0.00,,Clear,10,2013-10-14 05:10:00
1:30 AM,44.6,39.2,81,30.31,10.0,North,6.9,-,0.00,,Clear,360,2013-10-14 05:30:00
1:50 AM,44.6,39.2,81,30.32,10.0,North,6.9,-,0.00,,Clear,360,2013-10-14 05:50:00
2:10 AM,44.6,39.2,81,30.31,10.0,NNE,4.6,-,0.00,,Clear,20,2013-10-14 06:10:00
2:30 AM,44.6,39.2,81,30.32,10.0,North,5.8,-,0.00,,Clear,360,2013-10-14 06:30:00
2:50 AM,44.6,39.2,81,30.32,10.0,North,4.6,-,0.00,,Clear,10,2013-10-14 06:50:00
3:10 AM,42.8,39.2,87,30.31,10.0,NNE,4.6,-,0.00,,Clear,20,2013-10-14 07:10:00
3:30 AM,42.8,39.2,87,30.31,10.0,North,5.8,-,0.00,,Clear,10,2013-10-14 07:30:00
3:50 AM,41.0,39.2,93,30.31,10.0,North,5.8,-,0.00,,Clear,360,2013-10-14 07:50:00
4:10 AM,41.0,39.2,93,30.31,10.0,North,5.8,-,0.00,,Clear,10,2013-10-14 08:10:00
4:30 AM,41.0,39.2,93,30.31,10.0,North,5.8,-,0.00,,Clear,10,2013-10-14 08:30:00
4:50 AM,41.0,39.2,93,30.32,10.0,North,4.6,-,0.00,,Clear,10,2013-10-14 08:50:00
5:10 AM,39.2,39.2,100,30.32,10.0,North,5.8,-,0.00,,Clear,350,2013-10-14 09:10:00
5:30 AM,39.2,39.2,100,30.32,10.0,North,5.8,-,0.00,,Clear,10,2013-10-14 09:30:00
5:50 AM,39.2,39.2,100,30.32,10.0,North,4.6,-,0.00,,Clear,360,2013-10-14 09:50:00
6:10 AM,39.2,39.2,100,30.33,10.0,North,-9999.0,-,0.00,,Clear,0,2013-10-14 10:10:00
6:30 AM,39.2,39.2,100,30.33,10.0,North,4.6,-,0.00,,Clear,10,2013-10-14 10:30:00
6:50 AM,39.2,39.2,100,30.33,10.0,North,3.5,-,0.00,,Clear,10,2013-10-14 10:50:00
7:10 AM,39.2,39.2,100,30.33,10.0,North,5.8,-,0.00,,Clear,10,2013-10-14 11:10:00
7:30 AM,39.2,39.2,100,30.33,10.0,North,5.8,-,0.00,,Clear,10,2013-10-14 11:30:00
7:50 AM,39.2,39.2,100,30.33,9.0,North,3.5,-,0.00,,Clear,360,2013-10-14 11:50:00
8:10 AM,42.8,42.8,100,30.33,7.0,North,4.6,-,0.00,,Clear,360,2013-10-14 12:10:00
8:30 AM,44.6,44.6,100,30.34,9.0,North,5.8,-,0.00,,Clear,10,2013-10-14 12:30:00
8:50 AM,48.2,48.2,100,30.34,10.0,NE,6.9,-,0.00,,Clear,40,2013-10-14 12:50:00
9:10 AM,51.8,51.8,100,30.34,10.0,ENE,8.1,-,0.00,,Clear,60,2013-10-14 13:10:00
9:30 AM,53.6,50.0,88,30.34,10.0,NE,6.9,-,0.00,,Clear,50,2013-10-14 13:30:00
9:50 AM,55.4,48.2,77,30.34,10.0,ENE,10.4,17.3,0.00,,Clear,70,2013-10-14 13:50:00
10:10 AM,57.2,48.2,72,30.34,10.0,ENE,11.5,-,0.00,,Clear,70,2013-10-14 14:10:00
10:30 AM,57.2,48.2,72,30.34,10.0,NE,10.4,-,0.00,,Clear,50,2013-10-14 14:30:00
10:50 AM,57.2,48.2,72,30.33,10.0,East,11.5,-,0.00,,Clear,80,2013-10-14 14:50:00
11:50 AM,60.8,44.6,55,30.32,10.0,ENE,11.5,-,0.00,,Clear,70,2013-10-14 15:50:00
12:10 PM,60.8,44.6,55,30.31,10.0,ENE,10.4,-,0.00,,Clear,60,2013-10-14 16:10:00
12:30 PM,60.8,44.6,55,30.31,10.0,ESE,5.8,-,0.00,,Clear,110,2013-10-14 16:30:00
12:50 PM,60.8,44.6,55,30.31,10.0,NE,9.2,-,0.00,,Clear,40,2013-10-14 16:50:00
1:10 PM,62.6,44.6,52,30.30,10.0,ENE,9.2,-,0.00,,Clear,60,2013-10-14 17:10:00
1:30 PM,62.6,44.6,52,30.29,10.0,ENE,8.1,-,0.00,,Clear,60,2013-10-14 17:30:00
1:50 PM,64.4,42.8,45,30.27,10.0,East,5.8,-,0.00,,Clear,80,2013-10-14 17:50:00
2:10 PM,64.4,44.6,49,30.27,10.0,NNE,6.9,-,0.00,,Clear,20,2013-10-14 18:10:00
2:30 PM,64.4,42.8,45,30.26,10.0,ENE,5.8,-,0.00,,Clear,60,2013-10-14 18:30:00
2:50 PM,64.4,42.8,45,30.25,10.0,ENE,6.9,-,0.00,,Clear,60,2013-10-14 18:50:00
3:10 PM,64.4,41.0,42,30.24,10.0,ENE,6.9,-,0.00,,Clear,70,2013-10-14 19:10:00
3:30 PM,66.2,41.0,40,30.24,10.0,SE,4.6,-,0.00,,Clear,130,2013-10-14 19:30:00
3:50 PM,66.2,41.0,40,30.23,10.0,ENE,4.6,-,0.00,,Clear,70,2013-10-14 19:50:00
4:10 PM,66.2,42.8,43,30.23,10.0,North,3.5,-,0.00,,Clear,10,2013-10-14 20:10:00
4:30 PM,66.2,44.6,46,30.22,10.0,NNE,5.8,-,0.00,,Clear,30,2013-10-14 20:30:00
4:50 PM,64.4,44.6,49,30.23,10.0,North,6.9,-,0.00,,Clear,10,2013-10-14 20:50:00
5:10 PM,64.4,42.8,45,30.23,10.0,NE,3.5,-,0.00,,Clear,40,2013-10-14 21:10:00
5:30 PM,64.4,42.8,45,30.22,10.0,NNE,6.9,-,0.00,,Clear,30,2013-10-14 21:30:00
5:50 PM,64.4,44.6,49,30.22,10.0,NNE,6.9,-,0.00,,Clear,20,2013-10-14 21:50:00
6:10 PM,62.6,42.8,48,30.23,10.0,NNE,6.9,-,0.00,,Clear,30,2013-10-14 22:10:00
6:30 PM,60.8,44.6,55,30.22,10.0,NNE,5.8,-,0.00,,Clear,30,2013-10-14 22:30:00
6:50 PM,57.2,44.6,63,30.23,10.0,Calm,Calm,-,0.00,,Clear,0,2013-10-14 22:50:00
7:10 PM,55.4,44.6,67,30.23,10.0,ENE,3.5,-,0.00,,Clear,60,2013-10-14 23:10:00
7:30 PM,53.6,44.6,72,30.22,10.0,ENE,3.5,-,0.00,,Clear,60,2013-10-14 23:30:00
7:50 PM,53.6,44.6,72,30.22,10.0,NE,5.8,-,0.00,,Clear,50,2013-10-14 23:50:00
8:10 PM,53.6,44.6,72,30.21,10.0,NE,8.1,-,0.00,,Clear,40,2013-10-15 00:10:00
8:30 PM,55.4,44.6,67,30.22,10.0,NE,9.2,-,0.00,,Clear,50,2013-10-15 00:30:00
8:50 PM,53.6,46.4,77,30.22,10.0,NE,11.5,-,0.00,,Clear,50,2013-10-15 00:50:00
9:10 PM,53.6,46.4,77,30.22,10.0,NE,13.8,18.4,0.00,,Clear,50,2013-10-15 01:10:00
9:30 PM,53.6,46.4,77,30.22,10.0,NE,12.7,19.6,0.00,,Clear,50,2013-10-15 01:30:00
9:50 PM,51.8,46.4,82,30.21,10.0,NE,10.4,-,0.00,,Clear,50,2013-10-15 01:50:00
10:10 PM,51.8,46.4,82,30.22,10.0,NE,9.2,-,0.00,,Clear,50,2013-10-15 02:10:00
10:30 PM,51.8,46.4,82,30.22,10.0,ENE,9.2,-,0.00,,Clear,60,2013-10-15 02:30:00
10:50 PM,51.8,46.4,82,30.22,10.0,ENE,8.1,-,0.00,,Clear,60,2013-10-15 02:50:00
11:10 PM,50.0,46.4,87,30.22,10.0,ENE,5.8,-,0.00,,Clear,60,2013-10-15 03:10:00
11:30 PM,50.0,46.4,87,30.22,10.0,ENE,6.9,-,0.00,,Clear,60,2013-10-15 03:30:00
11:50 PM,50.0,46.4,87,30.21,10.0,ENE,6.9,-,0.00,,Clear,70,2013-10-15 03:50:00